Вернуться в каталог

FENGYUN 1C DEB

АктивенLEO
NORAD 31648·DEBRIS·🇨🇳 China

Запущен May 10, 1999 с Taiyuan Satellite Launch Center

Loading…

Ближайшие Пролёты (ближайшие 24 часа)

TLE

УстаревающийSource: Space-Track

Эпоха: Sep 9, 2026, 01:06 UTC

1 31648U 99025CBE 26252.04614210  .00004957  00000-0  24261-2 0  9994
2 31648 102.7876 197.0812 0040468 227.1624 132.6132 14.18229371757262

Отслеживайте FENGYUN 1C DEB в реальном времени с AllMySat

Download on the App Store